Location: Antichan
(42.9728°N, 0.6667°E)
Time: 16:29:34
(UTC+00:00)

X-37B - Pass Details

Date: 15 August 2020
Orbit: 386 x 387 km, 45.0° (Epoch: 18 September)

Event Time Altitude Azimuth Distance (km) Brightness Sun altitude
Rises 20:24:15 0° 284° (WNW) 2,266 5.9 -14.6°
Reaches altitude 10° 20:26:19 10° 286° (WNW) 1,411 4.6 -15.0°
Maximum altitude 20:29:30 76° 14° (NNE) 401 0.6 -15.4°
Enters shadow 20:30:38 36° 93° (E) 633 1.2 -15.6°
